• In Deutschland
  • Länderverzeichnis
  • Für 7 Tage
  • Wassertemperatur
  • Satellitenkarten
  • Wetterkarte
  • Widgets
  • user-avatar
    Anmelden

    Stündliche Wetter Kaliszki

    Heute, 19 August, Sonntag

    Zeit Temperatur Niederschläge Wind Luftdruck Luftfeuchtigkeit
    00:00 +17°C° 0,1 mm 2 m/S 752 mmHg 92%
    01:00 +16°C° 0,1 mm 2 m/S 752 mmHg 92%
    02:00 +16°C° 0 mm 1 m/S 752 mmHg 91%
    03:00 +15°C° 0 mm 1 m/S 752 mmHg 89%
    04:00 +15°C° 0 mm 1 m/S 752 mmHg 88%
    05:00 +16°C° 0 mm 1 m/S 752 mmHg 84%
    06:00 +19°C° 0 mm 1 m/S 752 mmHg 79%
    07:00 +20°C° 0 mm 1 m/S 752 mmHg 75%
    08:00 +21°C° 0 mm 1 m/S 752 mmHg 68%
    09:00 +23°C° 0 mm 2 m/S 753 mmHg 61%
    10:00 +25°C° 0 mm 2 m/S 753 mmHg 53%
    11:00 +25°C° 0 mm 2 m/S 752 mmHg 51%
    12:00 +26°C° 0 mm 2 m/S 752 mmHg 49%
    13:00 +27°C° 0 mm 3 m/S 752 mmHg 46%
    14:00 +27°C° 0 mm 2 m/S 752 mmHg 47%
    15:00 +27°C° 0 mm 2 m/S 752 mmHg 49%
    16:00 +27°C° 0 mm 2 m/S 751 mmHg 50%
    17:00 +25°C° 0 mm 1 m/S 751 mmHg 56%
    18:00 +23°C° 0 mm 1 m/S 751 mmHg 62%
    19:00 +21°C° 0 mm 1 m/S 751 mmHg 68%
    20:00 +21°C° 0 mm 1 m/S 751 mmHg 69%
    21:00 +20°C° 0 mm 1 m/S 751 mmHg 71%
    22:00 +20°C° 0 mm 1 m/S 751 mmHg 72%
    23:00 +18°C° 0 mm 2 m/S 751 mmHg 73%

    Morgen, 20 August, Montag

    Zeit Temperatur Niederschläge Wind Luftdruck Luftfeuchtigkeit
    00:00 +18°C° 0 mm 2 m/S 751 mmHg 73%
    01:00 +18°C° 0 mm 2 m/S 750 mmHg 74%
    02:00 +17°C° 0 mm 2 m/S 750 mmHg 75%
    03:00 +17°C° 0 mm 2 m/S 750 mmHg 76%
    04:00 +17°C° 0 mm 2 m/S 749 mmHg 77%
    05:00 +18°C° 0 mm 3 m/S 749 mmHg 75%
    06:00 +20°C° 0 mm 3 m/S 749 mmHg 72%
    07:00 +21°C° 0 mm 3 m/S 749 mmHg 69%
    08:00 +23°C° 0 mm 4 m/S 748 mmHg 64%
    09:00 +26°C° 0 mm 4 m/S 748 mmHg 59%
    10:00 +28°C° 0 mm 5 m/S 748 mmHg 54%
    11:00 +28°C° 0,3 mm 5 m/S 748 mmHg 54%
    12:00 +28°C° 0,3 mm 5 m/S 747 mmHg 53%
    13:00 +29°C° 0,3 mm 5 m/S 747 mmHg 53%
    14:00 +28°C° 0,2 mm 5 m/S 746 mmHg 55%
    15:00 +28°C° 0,2 mm 4 m/S 746 mmHg 58%
    16:00 +27°C° 0,2 mm 3 m/S 746 mmHg 60%
    17:00 +26°C° 0,1 mm 3 m/S 746 mmHg 63%
    18:00 +25°C° 0,1 mm 3 m/S 745 mmHg 66%
    19:00 +24°C° 0,1 mm 3 m/S 745 mmHg 69%
    20:00 +22°C° 0,1 mm 3 m/S 746 mmHg 74%
    21:00 +21°C° 0,1 mm 3 m/S 746 mmHg 80%
    22:00 +20°C° 0,1 mm 3 m/S 746 mmHg 85%
    23:00 +19°C° 0 mm 3 m/S 746 mmHg 86%

    übermorgen, 21 August, Dienstag

    Zeit Temperatur Niederschläge Wind Luftdruck Luftfeuchtigkeit
    00:00 +18°C° 0 mm 4 m/S 746 mmHg 88%
    01:00 +17°C° 0 mm 4 m/S 746 mmHg 89%
    02:00 +15°C° 0 mm 4 m/S 747 mmHg 89%
    03:00 +14°C° 0 mm 4 m/S 747 mmHg 89%
    04:00 +13°C° 0 mm 4 m/S 748 mmHg 89%
    05:00 +14°C° 0 mm 4 m/S 748 mmHg 86%
    06:00 +15°C° 0 mm 4 m/S 749 mmHg 83%
    07:00 +17°C° 0 mm 4 m/S 749 mmHg 79%
    08:00 +19°C° 0 mm 4 m/S 749 mmHg 73%
    09:00 +20°C° 0 mm 4 m/S 750 mmHg 66%
    10:00 +21°C° 0 mm 4 m/S 750 mmHg 60%
    11:00 +22°C° 0,1 mm 4 m/S 750 mmHg 58%
    12:00 +22°C° 0,1 mm 4 m/S 751 mmHg 56%
    13:00 +22°C° 0,1 mm 3 m/S 751 mmHg 54%
    14:00 +22°C° 0,1 mm 3 m/S 751 mmHg 56%
    15:00 +22°C° 0,1 mm 3 m/S 751 mmHg 58%
    16:00 +21°C° 0,1 mm 3 m/S 751 mmHg 60%
    17:00 +20°C° 0 mm 3 m/S 751 mmHg 66%
    18:00 +18°C° 0 mm 3 m/S 752 mmHg 72%
    19:00 +17°C° 0 mm 2 m/S 752 mmHg 78%
    20:00 +16°C° 0 mm 2 m/S 752 mmHg 81%
    21:00 +15°C° 0 mm 2 m/S 753 mmHg 85%
    22:00 +14°C° 0 mm 2 m/S 753 mmHg 89%
    23:00 +14°C° 0 mm 2 m/S 753 mmHg 89%

    22 August, Mittwoch

    Zeit Temperatur Niederschläge Wind Luftdruck Luftfeuchtigkeit
    00:00 +13°C° 0 mm 1 m/S 754 mmHg 90%
    01:00 +13°C° 0 mm 1 m/S 754 mmHg 91%
    02:00 +12°C° 0 mm 1 m/S 754 mmHg 91%
    03:00 +12°C° 0 mm 1 m/S 754 mmHg 91%
    04:00 +12°C° 0 mm 1 m/S 754 mmHg 91%
    05:00 +13°C° 0 mm 1 m/S 754 mmHg 85%
    06:00 +14°C° 0 mm 1 m/S 754 mmHg 79%
    07:00 +16°C° 0 mm 1 m/S 755 mmHg 73%
    08:00 +18°C° 0 mm 1 m/S 755 mmHg 67%
    09:00 +20°C° 0 mm 1 m/S 755 mmHg 60%
    10:00 +22°C° 0 mm 1 m/S 754 mmHg 54%
    11:00 +23°C° 0 mm 2 m/S 754 mmHg 50%
    12:00 +24°C° 0 mm 2 m/S 754 mmHg 47%
    13:00 +25°C° 0 mm 2 m/S 753 mmHg 43%
    14:00 +25°C° 0 mm 1 m/S 753 mmHg 43%
    15:00 +25°C° 0 mm 1 m/S 753 mmHg 44%
    16:00 +25°C° 0 mm 1 m/S 752 mmHg 44%
    17:00 +23°C° 0 mm 1 m/S 752 mmHg 50%
    18:00 +20°C° 0 mm 2 m/S 752 mmHg 55%
    19:00 +19°C° 0 mm 2 m/S 752 mmHg 61%
    20:00 +18°C° 0 mm 2 m/S 752 mmHg 62%
    21:00 +17°C° 0 mm 2 m/S 752 mmHg 64%
    22:00 +17°C° 0 mm 2 m/S 752 mmHg 66%
    23:00 +16°C° 0 mm 3 m/S 752 mmHg 69%

    23 August, Donnerstag

    Zeit Temperatur Niederschläge Wind Luftdruck Luftfeuchtigkeit
    00:00 +16°C° 0 mm 3 m/S 752 mmHg 71%
    01:00 +16°C° 0 mm 3 m/S 751 mmHg 74%
    02:00 +14°C° 0 mm 3 m/S 751 mmHg 77%
    03:00 +14°C° 0 mm 3 m/S 751 mmHg 80%
    04:00 +14°C° 0 mm 3 m/S 751 mmHg 83%
    05:00 +16°C° 0 mm 3 m/S 751 mmHg 79%
    06:00 +18°C° 0 mm 3 m/S 751 mmHg 75%
    07:00 +19°C° 0 mm 3 m/S 751 mmHg 71%
    08:00 +21°C° 0 mm 3 m/S 751 mmHg 65%
    09:00 +24°C° 0 mm 3 m/S 751 mmHg 60%
    10:00 +26°C° 0 mm 3 m/S 750 mmHg 54%
    11:00 +26°C° 0 mm 3 m/S 750 mmHg 51%
    12:00 +27°C° 0 mm 3 m/S 750 mmHg 48%
    13:00 +28°C° 0 mm 3 m/S 749 mmHg 45%
    14:00 +27°C° 0 mm 3 m/S 749 mmHg 46%
    15:00 +27°C° 0 mm 3 m/S 749 mmHg 47%
    16:00 +27°C° 0 mm 2 m/S 748 mmHg 47%
    17:00 +25°C° 0 mm 2 m/S 748 mmHg 52%
    18:00 +22°C° 0 mm 3 m/S 748 mmHg 58%
    19:00 +21°C° 0 mm 3 m/S 748 mmHg 63%
    20:00 +20°C° 0 mm 3 m/S 748 mmHg 67%
    21:00 +19°C° 0 mm 3 m/S 748 mmHg 71%
    22:00 +18°C° 0 mm 3 m/S 748 mmHg 74%
    23:00 +18°C° 0 mm 3 m/S 747 mmHg 78%

    24 August, Freitag

    Zeit Temperatur Niederschläge Wind Luftdruck Luftfeuchtigkeit
    00:00 +18°C° 0 mm 3 m/S 747 mmHg 82%
    01:00 +17°C° 0 mm 3 m/S 747 mmHg 86%
    02:00 +17°C° 0 mm 3 m/S 746 mmHg 88%
    03:00 +16°C° 0 mm 3 m/S 746 mmHg 90%
    04:00 +16°C° 0 mm 3 m/S 746 mmHg 92%
    05:00 +17°C° 0 mm 3 m/S 745 mmHg 88%
    06:00 +19°C° 0 mm 4 m/S 745 mmHg 84%
    07:00 +20°C° 0 mm 4 m/S 745 mmHg 80%
    08:00 +22°C° 0 mm 4 m/S 745 mmHg 73%
    09:00 +25°C° 0 mm 4 m/S 745 mmHg 67%
    10:00 +27°C° 0 mm 4 m/S 745 mmHg 60%
    11:00 +28°C° 0 mm 4 m/S 744 mmHg 56%
    12:00 +29°C° 0 mm 4 m/S 744 mmHg 51%
    13:00 +30°C° 0 mm 4 m/S 743 mmHg 46%
    14:00 +29°C° 0 mm 4 m/S 743 mmHg 50%
    15:00 +29°C° 0 mm 4 m/S 743 mmHg 54%
    16:00 +28°C° 0 mm 3 m/S 742 mmHg 58%
    17:00 +26°C° 0,3 mm 4 m/S 742 mmHg 62%
    18:00 +25°C° 0,3 mm 4 m/S 742 mmHg 66%
    19:00 +23°C° 0,3 mm 4 m/S 742 mmHg 69%
    20:00 +22°C° 0,6 mm 4 m/S 742 mmHg 75%
    21:00 +21°C° 0,6 mm 4 m/S 742 mmHg 80%
    22:00 +20°C° 0,6 mm 3 m/S 742 mmHg 86%
    23:00 +20°C° 0,8 mm 3 m/S 742 mmHg 89%
    Mehr zeigen